TimeEDT,TemperatureF,Dew PointF,Humidity,Sea Level PressureIn,VisibilityMPH,Wind Direction,Wind SpeedMPH,Gust SpeedMPH,PrecipitationIn,Events,Conditions,WindDirDegrees,DateUTC
12:53 AM,57.0,57.0,100,30.18,1.0,Calm,Calm,-,N/A,,Overcast,0,2013-05-20 04:53:00
1:17 AM,57.2,57.2,100,30.16,0.8,Calm,Calm,-,N/A,,Overcast,0,2013-05-20 05:17:00
1:46 AM,57.2,57.2,100,30.15,0.5,Calm,Calm,-,N/A,Fog,Fog,0,2013-05-20 05:46:00
1:53 AM,57.0,57.0,100,30.16,0.5,Calm,Calm,-,N/A,Fog,Fog,0,2013-05-20 05:53:00
2:19 AM,57.2,57.2,100,30.12,0.2,Calm,Calm,-,N/A,Fog,Fog,0,2013-05-20 06:19:00
2:53 AM,55.9,55.9,100,30.13,0.2,Calm,Calm,-,N/A,Fog,Fog,0,2013-05-20 06:53:00
3:53 AM,55.9,55.9,100,30.13,0.2,Calm,Calm,-,N/A,Fog,Fog,0,2013-05-20 07:53:00
4:48 AM,55.4,55.4,100,30.10,0.5,Calm,Calm,-,N/A,Fog,Fog,0,2013-05-20 08:48:00
4:53 AM,57.0,57.0,100,30.12,0.5,Calm,Calm,-,N/A,Fog,Fog,0,2013-05-20 08:53:00
5:18 AM,57.2,57.2,100,30.09,2.0,Calm,Calm,-,N/A,,Overcast,0,2013-05-20 09:18:00
5:31 AM,57.2,57.2,100,30.09,1.5,Calm,Calm,-,N/A,,Overcast,0,2013-05-20 09:31:00
5:41 AM,57.2,57.2,100,30.10,2.5,Calm,Calm,-,N/A,,Overcast,0,2013-05-20 09:41:00
5:53 AM,57.0,57.0,100,30.12,1.8,Calm,Calm,-,N/A,,Overcast,0,2013-05-20 09:53:00
5:57 AM,57.2,57.2,100,30.10,2.0,Calm,Calm,-,N/A,,Overcast,0,2013-05-20 09:57:00
6:22 AM,57.2,57.2,100,30.10,2.0,Calm,Calm,-,N/A,,Overcast,0,2013-05-20 10:22:00
6:34 AM,57.2,57.2,100,30.10,3.0,Calm,Calm,-,N/A,,Overcast,0,2013-05-20 10:34:00
6:43 AM,57.2,57.2,100,30.10,2.0,Calm,Calm,-,N/A,,Overcast,0,2013-05-20 10:43:00
8:07 AM,57.2,57.2,100,30.11,2.5,Calm,Calm,-,N/A,,Overcast,0,2013-05-20 12:07:00
8:46 AM,59.0,59.0,100,30.12,2.5,Calm,Calm,-,N/A,,Overcast,0,2013-05-20 12:46:00
8:53 AM,60.1,60.1,100,30.14,2.5,Calm,Calm,-,N/A,,Overcast,0,2013-05-20 12:53:00
9:53 AM,63.0,61.0,93,30.13,2.5,WSW,3.5,-,N/A,,Overcast,250,2013-05-20 13:53:00
10:00 AM,62.6,60.8,94,30.11,7.0,Variable,6.9,28.8,N/A,,Overcast,0,2013-05-20 14:00:00
10:35 AM,66.2,62.6,88,30.11,9.0,WSW,5.8,-,N/A,,Overcast,240,2013-05-20 14:35:00
10:51 AM,66.2,62.6,88,30.10,10.0,Calm,Calm,-,N/A,,Overcast,0,2013-05-20 14:51:00
10:53 AM,66.9,63.0,87,30.11,10.0,SW,3.5,-,N/A,,Overcast,220,2013-05-20 14:53:00
11:53 AM,72.0,64.0,76,30.08,10.0,West,5.8,-,N/A,,Mostly Cloudy,270,2013-05-20 15:53:00
12:53 PM,73.9,64.0,71,30.06,10.0,Variable,5.8,-,N/A,,Mostly Cloudy,0,2013-05-20 16:53:00
1:53 PM,75.9,64.9,69,30.04,10.0,Variable,4.6,-,N/A,,Overcast,0,2013-05-20 17:53:00
2:53 PM,75.9,64.0,67,30.03,10.0,Variable,3.5,-,N/A,,Overcast,0,2013-05-20 18:53:00
3:53 PM,78.1,64.0,62,30.01,10.0,Variable,4.6,-,N/A,,Partly Cloudy,0,2013-05-20 19:53:00
4:53 PM,78.1,64.0,62,29.99,10.0,Variable,3.5,-,N/A,,Mostly Cloudy,0,2013-05-20 20:53:00
5:53 PM,79.0,64.0,60,29.99,10.0,Variable,4.6,-,N/A,,Scattered Clouds,0,2013-05-20 21:53:00
6:53 PM,78.1,64.9,64,29.99,10.0,SW,6.9,-,N/A,,Clear,220,2013-05-20 22:53:00
7:53 PM,75.9,64.9,69,29.98,10.0,SW,3.5,-,N/A,,Clear,230,2013-05-20 23:53:00
8:53 PM,73.9,64.9,73,29.99,10.0,Calm,Calm,-,N/A,,Clear,0,2013-05-21 00:53:00
9:53 PM,72.0,64.9,78,30.01,10.0,Calm,Calm,-,N/A,,Clear,0,2013-05-21 01:53:00
10:53 PM,71.1,66.0,84,29.99,10.0,Calm,Calm,-,N/A,,Clear,0,2013-05-21 02:53:00
11:53 PM,68.0,64.9,90,29.99,9.0,Calm,Calm,-,N/A,,Clear,0,2013-05-21 03:53:00